This demonstration page uses our WeatherBlox Daily Observations layout. Learn more.

Hourly Observations for May 31, 2019

Temp ( °F °C ) Dew Point ( °F °C ) Humidity (%) Winds ( mph kmh ) Pressure ( in mb ) Visibility ( mi km ) Precip ( " mm )
12:15 am 00:15 Clear 55 12.8 54 12.4 97 97 E 3 6 29.98 1015 7 11.26538 0 0
12:35 am 00:35 Clear 56 13.1 54 12.4 96 96 Calm 29.97 1015 10 16.0934 0 0
12:55 am 00:55 Clear 55 13 55 12.5 97 97 W 6 9 29.97 1015 7 11.26538 0 0
1:15 am 01:15 Clear 54 12.3 54 12.1 99 99 Calm 29.98 1015 7 11.26538 0 0
1:35 am 01:35 Clear with Mist and Fog 55 12.5 54 12 97 97 WNW 6 9 29.99 1016 5 8.0467 0 0
1:55 am 01:55 Clear 55 12.6 54 12 96 96 WNW 3 6 29.99 1015 7 11.26538 0 0
2:15 am 02:15 Clear with Mist and Fog 52 11.2 52 11 99 99 NW 3 6 30.01 1016 5 8.0467 0 0
2:35 am 02:35 Clear with Mist and Fog 53 11.6 52 11.1 97 97 Calm 30.01 1016 5 8.0467 0 0
2:55 am 02:55 Clear with Mist and Fog 53 11.5 53 11.5 100 100 Calm 30.01 1016 5 8.0467 0 0
3:15 am 03:15 Clear with Mist and Fog 53 11.8 52 11.2 96 96 Calm 30 1016 5 8.0467 0 0
3:35 am 03:35 Clear with Mist and Fog 52 11 52 10.9 99 99 NW 3 6 30.01 1016 3 4.82802 0 0
3:55 am 03:55 Clear with Mist and Fog 51 10.7 51 10.7 100 100 NW 3 6 30.01 1016 3 4.82802 0 0
4:15 am 04:15 Clear with Mist and Fog 52 10.9 52 10.9 100 100 Calm 30.01 1016 4 6.43736 0 0
4:35 am 04:35 Clear with Mist and Fog 50 10.2 50 10.2 100 100 Calm 30.02 1017 4 6.43736 0 0
4:55 am 04:55 Clear with Mist and Fog 50 10 50 9.9 99 99 NW 3 6 30.02 1017 5 8.0467 0 0
5:15 am 05:15 Clear with Mist and Fog 50 10 50 10 100 100 WNW 3 6 30.03 1017 4 6.43736 0 0
5:35 am 05:35 Clear with Mist and Fog 50 10 50 10 100 100 W 6 9 30.04 1017 4 6.43736 0 0
5:55 am 05:55 Clear with Mist and Fog 51 10.4 50 10.2 99 99 WNW 5 7 30.04 1017 5 8.0467 0 0
6:15 am 06:15 Sunny with Mist and Fog 51 10.5 50 10.1 97 97 W 5 7 30.04 1017 4 6.43736 0 0
6:35 am 06:35 Sunny with Mist and Fog 50 10.2 50 10 99 99 W 3 6 30.05 1018 4 6.43736 0 0
6:55 am 06:55 Sunny with Mist and Fog 51 10.5 50 10.2 98 98 W 3 6 30.04 1017 5 8.0467 0 0
7:15 am 07:15 Sunny with Mist and Fog 51 10.3 50 10.2 99 99 Calm 30.04 1017 3 4.82802 0 0
7:35 am 07:35 Sunny with Mist and Fog 51 10.5 51 10.4 99 99 WNW 3 6 30.04 1017 4 6.43736 0 0
7:55 am 07:55 Sunny with Mist and Fog 54 12.3 53 11.6 96 96 WNW 3 6 30.02 1017 4 6.43736 0 0
8:15 am 08:15 Sunny with Mist and Fog 56 13.3 55 12.6 96 96 Calm 30.01 1016 4 6.43736 0 0
8:35 am 08:35 Sunny with Mist and Fog 57 13.8 55 12.7 93 93 W 3 6 30.01 1016 5 8.0467 0 0
8:55 am 08:55 Sunny with Mist and Fog 58 14.2 56 13.1 93 93 Calm 30 1016 5 8.0467 0 0
9:15 am 09:15 Sunny 58 14.5 55 12.9 90 90 W 3 6 30 1016 7 11.26538 0 0
9:35 am 09:35 Sunny 60 15.4 56 13.5 89 89 Calm 29.99 1016 7 11.26538 0 0
9:55 am 09:55 Sunny 62 16.4 56 13.2 82 82 Calm 29.98 1015 10 16.0934 0 0
10:15 am 10:15 Sunny 64 17.6 57 14.1 80 80 Calm 29.97 1015 10 16.0934 0 0
10:35 am 10:35 Sunny 65 18.5 58 14.2 76 76 Calm 29.96 1015 7 11.26538 0 0
10:55 am 10:55 Sunny 68 20.1 60 15.3 74 74 Calm 29.95 1014 10 16.0934 0 0
11:15 am 11:15 Sunny 70 21 58 14.6 67 67 SSW 3 6 29.94 1014 10 16.0934 0 0
11:35 am 11:35 Sunny 72 22.2 59 15 64 64 SW 3 6 29.93 1014 10 16.0934 0 0
11:55 am 11:55 Sunny 73 23 57 13.7 56 56 S 6 9 29.93 1013 10 16.0934 0 0
12:15 pm 12:15 Sunny 74 23.1 56 13.5 55 55 S 8 13 29.93 1013 10 16.0934 0 0
12:35 pm 12:35 Sunny 74 23.5 56 13.3 53 53 S 8 13 29.92 1013 10 16.0934 0 0
12:55 pm 12:55 Sunny 75 23.7 55 12.7 50 50 SSW 9 15 29.91 1013 10 16.0934 0 0
1:15 pm 13:15 Sunny 75 24 55 12.7 49 49 SSW 10 17 29.9 1012 10 16.0934 0 0
1:35 pm 13:35 Sunny 76 24.2 56 13.2 50 50 S 7 11 29.9 1012 10 16.0934 0 0
1:55 pm 13:55 Sunny 76 24.3 55 12.6 48 48 S 7 11 29.89 1012 10 16.0934 0 0
2:15 pm 14:15 Sunny 76 24.3 55 12.5 48 48 S 7 11 29.88 1012 10 16.0934 0 0
2:35 pm 14:35 Sunny 76 24.4 55 12.5 48 48 S 9 15 29.86 1011 10 16.0934 0 0
2:55 pm 14:55 Sunny 76 24.5 55 12.9 48 48 S 9 15 29.86 1011 10 16.0934 0 0
3:15 pm 15:15 Sunny 76 24.5 55 12.7 48 48 S 10 17 29.85 1011 10 16.0934 0 0
3:35 pm 15:35 Sunny 76 24.6 56 13.1 49 49 SSE 8 13 29.84 1011 10 16.0934 0 0
3:55 pm 15:55 Sunny 76 24.6 55 12.8 48 48 S 12 19 29.84 1011 10 16.0934 0 0
4:15 pm 16:15 Sunny 77 24.8 57 14.1 51 51 S 10 17 29.83 1010 10 16.0934 0 0
4:35 pm 16:35 Sunny 76 24.7 58 14.4 53 53 S 7 11 29.83 1010 10 16.0934 0 0
4:55 pm 16:55 Sunny 77 24.8 58 14.3 52 52 SSW 10 17 29.82 1010 10 16.0934 0 0
5:15 pm 17:15 Sunny 76 24.7 56 13.4 49 49 S 9 15 29.81 1010 10 16.0934 0 0
5:35 pm 17:35 Sunny 76 24.5 57 13.7 51 51 S 7 11 29.81 1010 10 16.0934 0 0
5:55 pm 17:55 Sunny 76 24.7 56 13.4 49 49 S 6 9 29.81 1010 10 16.0934 0 0
6:15 pm 18:15 Sunny 77 24.8 55 12.5 46 46 S 6 9 29.8 1009 7 11.26538 0 0
6:35 pm 18:35 Sunny 76 24.3 58 14.7 55 55 S 3 6 29.8 1009 10 16.0934 0 0
6:55 pm 18:55 Sunny 75 23.9 56 13.4 52 52 SSE 6 9 29.79 1009 7 11.26538 0 0
7:15 pm 19:15 Sunny 75 23.7 56 13.6 53 53 SSE 7 11 29.79 1009 7 11.26538 0 0
7:35 pm 19:35 Sunny 73 22.9 58 14.6 60 60 SSE 7 11 29.8 1009 10 16.0934 0 0
7:55 pm 19:55 Sunny 71 21.9 58 14.6 63 63 SSE 6 9 29.8 1009 7 11.26538 0 0
8:15 pm 20:15 Sunny 70 21.1 56 13.5 62 62 SE 5 7 29.8 1009 10 16.0934 0 0
8:35 pm 20:35 Sunny 69 20.7 56 13.4 63 63 SSE 8 13 29.81 1009 7 11.26538 0 0
8:55 pm 20:55 Sunny 67 19.6 57 14.1 71 71 SSE 6 9 29.82 1010 10 16.0934 0 0
9:15 pm 21:15 Clear 66 19 58 14.5 75 75 SSE 7 11 29.83 1010 10 16.0934 0 0
9:35 pm 21:35 Partly Cloudy 66 19 59 15 78 78 S 6 9 29.84 1011 10 16.0934 0 0
9:55 pm 21:55 Mostly Cloudy with Rain 65 18.6 61 15.9 84 84 SW 9 15 29.85 1011 7 11.26538 0.02 0.508
10:15 pm 22:15 Partly Cloudy 67 19.2 59 15 77 77 Calm 29.85 1011 10 16.0934 0.01 0.254
10:35 pm 22:35 Clear 67 19.5 59 14.8 74 74 SSE 3 6 29.84 1010 10 16.0934 0.01 0.254
10:55 pm 22:55 Clear 63 17.1 58 14.6 85 85 S 7 11 29.86 1011 7 11.26538 0.01 0.254
11:15 pm 23:15 Partly Cloudy 62 16.9 59 14.8 88 88 S 6 9 29.86 1011 10 16.0934 0 0
11:35 pm 23:35 Partly Cloudy 62 16.6 58 14.3 86 86 S 9 15 29.86 1011 10 16.0934 0 0
11:55 pm 23:55 Clear 62 16.9 58 14.6 86 86 S 10 17 29.86 1011 10 16.0934 0 0

Powered by AerisWeather